2023/01/25 00:00:00,56.7,-8.4
2023/01/25 00:10:00,57.6,-8.5
2023/01/25 00:20:00,57.8,-8.0
2023/01/25 00:30:00,58.9,-8.4
2023/01/25 00:40:00,58.7,-8.4
2023/01/25 00:50:00,58.5,-8.1
2023/01/25 01:00:00,58.5,-8.4
2023/01/25 01:10:00,58.7,-8.1
2023/01/25 01:20:00,60.0,-8.8
2023/01/25 01:30:00,61.4,-8.0
2023/01/25 01:40:00,62.3,-8.2
2023/01/25 01:50:00,63.3,-8.6
2023/01/25 02:00:00,64.7,-8.5
2023/01/25 02:10:00,65.9,-8.2
2023/01/25 02:20:00,65.8,-8.8
2023/01/25 02:30:00,66.7,-8.4
2023/01/25 02:40:00,67.1,-8.2
2023/01/25 02:50:00,67.8,-8.4
2023/01/25 03:00:00,68.2,-8.2
2023/01/25 03:10:00,68.7,-8.2
2023/01/25 03:20:00,69.4,-8.2
2023/01/25 03:30:00,71.0,-8.2
2023/01/25 03:40:00,72.0,-9.1
2023/01/25 03:50:00,71.6,-8.6
2023/01/25 04:00:00,71.4,-8.8
2023/01/25 04:10:00,71.4,-8.2
2023/01/25 04:20:00,71.4,-9.0
2023/01/25 04:30:00,72.1,-8.2
2023/01/25 04:40:00,73.1,-8.4
2023/01/25 04:50:00,74.3,-8.2
2023/01/25 05:00:00,75.6,-8.2
2023/01/25 05:10:00,77.4,-8.4
2023/01/25 05:20:00,78.9,-8.4
2023/01/25 05:30:00,79.0,-8.4
2023/01/25 05:40:00,78.9,-8.0
2023/01/25 05:50:00,79.0,-8.1
2023/01/25 06:00:00,78.8,-8.0
2023/01/25 06:10:00,78.8,-8.8
2023/01/25 06:20:00,79.2,-8.7
2023/01/25 06:30:00,79.4,-8.2
2023/01/25 06:40:00,78.9,-7.9
2023/01/25 06:50:00,78.4,-8.4
2023/01/25 07:00:00,77.9,-8.6
2023/01/25 07:10:00,77.5,-8.3
2023/01/25 07:20:00,77.1,-8.1
2023/01/25 07:30:00,76.7,-7.7
2023/01/25 07:40:00,76.2,-9.1
2023/01/25 07:50:00,76.0,-7.9
2023/01/25 08:00:00,76.2,-8.4
2023/01/25 08:10:00,76.3,-7.9
2023/01/25 08:20:00,76.6,-7.5
2023/01/25 08:30:00,76.3,-7.4
2023/01/25 08:40:00,76.0,-7.5
2023/01/25 08:50:00,75.9,-7.6
2023/01/25 09:00:00,75.7,-7.7
2023/01/25 09:10:00,75.3,-7.3
2023/01/25 09:20:00,75.0,-6.7
2023/01/25 09:30:00,74.7,-6.2
2023/01/25 09:40:00,74.4,-6.4
2023/01/25 09:50:00,74.0,-5.9
2023/01/25 10:00:00,73.9,-5.6
2023/01/25 10:10:00,73.7,-5.9
2023/01/25 10:20:00,73.3,-5.7
2023/01/25 10:30:00,73.2,-5.5
2023/01/25 10:40:00,73.0,-5.6
2023/01/25 10:50:00,72.8,-5.4
2023/01/25 11:00:00,72.3,-6.0
2023/01/25 11:10:00,72.0,-5.4
2023/01/25 11:20:00,71.7,-4.8
2023/01/25 11:30:00,71.5,-4.3
2023/01/25 11:40:00,71.4,-5.0
2023/01/25 11:50:00,71.5,-4.6
2023/01/25 12:00:00,71.1,-4.6
2023/01/25 12:10:00,71.1,-4.8
2023/01/25 12:20:00,70.9,-4.9
2023/01/25 12:30:00,70.6,-4.4
2023/01/25 12:40:00,70.2,-5.3
2023/01/25 12:50:00,70.3,-5.0
2023/01/25 13:00:00,70.3,-4.8
2023/01/25 13:10:00,70.0,-5.1
2023/01/25 13:20:00,69.6,-4.6
2023/01/25 13:30:00,69.4,-4.0
2023/01/25 13:40:00,69.3,-4.8
2023/01/25 13:50:00,69.5,-4.2
2023/01/25 14:00:00,70.0,-4.5
2023/01/25 14:10:00,69.8,-4.6
2023/01/25 14:20:00,70.1,-4.9
2023/01/25 14:30:00,70.2,-4.6
2023/01/25 14:40:00,70.2,-4.7
2023/01/25 14:50:00,70.1,-4.6
2023/01/25 15:00:00,69.8,-5.0
2023/01/25 15:10:00,69.5,-4.8
2023/01/25 15:20:00,69.2,-4.5
2023/01/25 15:30:00,69.2,-4.8
2023/01/25 15:40:00,69.4,-4.6
2023/01/25 15:50:00,69.2,-4.6
2023/01/25 16:00:00,69.2,-3.6
2023/01/25 16:10:00,69.0,-4.4
2023/01/25 16:20:00,68.7,-4.5
2023/01/25 16:30:00,68.4,-4.3
2023/01/25 16:40:00,68.5,-4.1
2023/01/25 16:50:00,68.2,-5.0
2023/01/25 17:00:00,68.1,-5.3
2023/01/25 17:10:00,68.0,-5.8
2023/01/25 17:20:00,67.6,-5.4
2023/01/25 17:30:00,67.5,-5.5
2023/01/25 17:40:00,67.1,-5.6
2023/01/25 17:50:00,67.0,-5.9
2023/01/25 18:00:00,66.9,-5.8
2023/01/25 18:10:00,66.8,-5.7
2023/01/25 18:20:00,66.7,-5.9
2023/01/25 18:30:00,66.6,-5.9
2023/01/25 18:40:00,66.3,-5.7
2023/01/25 18:50:00,66.1,-5.9
2023/01/25 19:00:00,65.9,-5.8
2023/01/25 19:10:00,65.8,-5.9
2023/01/25 19:20:00,65.9,-5.6
2023/01/25 19:30:00,65.8,-6.0
2023/01/25 19:40:00,66.4,-5.8
2023/01/25 19:50:00,66.3,-5.8
2023/01/25 20:00:00,66.2,-5.5
2023/01/25 20:10:00,66.0,-6.1
2023/01/25 20:20:00,65.8,-5.9
2023/01/25 20:30:00,65.6,-6.1
2023/01/25 20:40:00,65.6,-6.0
2023/01/25 20:50:00,65.5,-5.7
2023/01/25 21:00:00,65.5,-6.3
2023/01/25 21:10:00,65.3,-7.5
2023/01/25 21:20:00,65.2,-8.3
2023/01/25 21:30:00,65.2,-8.7
2023/01/25 21:40:00,65.2,-8.8
2023/01/25 21:50:00,65.1,-8.8
2023/01/25 22:00:00,64.9,-8.8
2023/01/25 22:10:00,64.6,-9.4
2023/01/25 22:20:00,64.5,-9.5
2023/01/25 22:30:00,64.5,-9.1
2023/01/25 22:40:00,64.4,-8.9
2023/01/25 22:50:00,64.3,-9.3
2023/01/25 23:00:00,64.2,-9.8
2023/01/25 23:10:00,64.2,-9.5
2023/01/25 23:20:00,64.1,-9.9
2023/01/25 23:30:00,64.0,-9.9
2023/01/25 23:40:00,63.9,-10.0
2023/01/25 23:50:00,63.7,-9.7
